Content
SEND FEEDBACK

Daily
Averages
Monthly
Summary
United States of America

INDEPENDENCE, IOWA


Home > North America > United States > Iowa
Elevation: 920 feet     Latitude: 42 28N     Longitude: 091 54W

WEATHER
 
SELECT A DAY
Number of Records: 201,399;   Date Range: 8/16/02 - 7/7/14
 
SHARE

PRINT THIS DATA

[ ← Previous Day ]
WEATHER ALMANAC - JANUARY 31, 2013
[ Next Day → ]
[ °C ]   °F
Weather ElementAverageHighLow
Temperature4.3 °F14 °F (12:55 am)-2.2 °F (9:55 pm)
Dewpoint-2.4 °F8.6 °F (12:35 am)-9.4 °F (9:35 pm)
Humidity73.7 %85 % (12:35 am)66 % (9:55 am)
Barometer29.99 in30.26 in (11:15 pm)29.76 in (12:35 am)
Wind Speed18.9 mph27.6 mph (3:35 pm)
Wind Gust33.4 mph (1:55 pm)
Weather ElementAverage
Visibility7.1 mi
Wind DirectionWNW (300.9 °)

Weather ElementTotal
Precipitation---
Heating Degree Days59.1 (Base 65)
Averaged from 68 records on January 31, 2013
WEATHER CONDITIONS BREAKOUT
WIND DIRECTION BREAKOUT
WEATHER BY HOUR - JANUARY 31, 2013
[ °C ]   °F
Local TimeTemperatureDewpointHumidityBarometerVisibilityWind DirectionWind SpeedGust SpeedPrecipitationEventsConditions
12:35 AM12.2 °F8.6 °F85 %29.76 in7.0 miWNW (300°)19.6 mphOvercast
12:55 AM14.0 °F8.6 °F79 %29.76 in10.0 miWNW (300°)19.6 mphOvercast
1:15 AM12.2 °F8.6 °F85 %29.77 in10.0 miWNW (300°)18.4 mphOvercast
1:35 AM12.2 °F6.8 °F79 %29.77 in5.0 miWNW (290°)18.4 mph27.6 mphHaze
1:55 AM10.4 °F3.2 °F73 %29.79 in7.0 miWNW (300°)23.0 mph28.8 mphScattered Clouds
2:15 AM10.4 °F3.2 °F73 %29.80 in10.0 miWNW (290°)16.1 mph26.5 mphScattered Clouds
2:35 AM8.6 °F3.2 °F79 %29.80 in10.0 miWNW (290°)17.3 mph25.3 mphOvercast
2:55 AM8.6 °F3.2 °F79 %29.80 in7.0 miWNW (290°)15.0 mphOvercast
3:15 AM8.6 °F3.2 °F79 %29.80 in10.0 miWNW (290°)12.7 mphOvercast
3:35 AM8.6 °F1.4 °F73 %29.80 in10.0 miWNW (300°)17.3 mphMostly Cloudy
3:55 AM6.8 °F1.4 °F79 %29.81 in10.0 miWNW (290°)12.7 mphScattered Clouds
4:15 AM6.8 °F1.4 °F79 %29.81 in10.0 miWNW (290°)16.1 mphScattered Clouds
4:35 AM6.8 °F1.4 °F79 %29.81 in10.0 miWNW (290°)15.0 mphClear
4:55 AM6.8 °F1.4 °F79 %29.82 in10.0 miWNW (290°)16.1 mphClear
5:15 AM6.8 °F1.4 °F79 %29.82 in10.0 miWNW (290°)17.3 mphScattered Clouds
5:35 AM5.0 °F-0.4 °F78 %29.83 in10.0 miWNW (300°)18.4 mph24.2 mphScattered Clouds
5:55 AM5.0 °F-0.4 °F78 %29.84 in10.0 miWNW (300°)17.3 mphScattered Clouds
6:15 AM5.0 °F-0.4 °F78 %29.85 in10.0 miWNW (300°)17.3 mphMostly Cloudy
6:55 AM5.0 °F-0.4 °F78 %29.86 in10.0 miWNW (300°)20.7 mphOvercast
7:15 AM5.0 °F-0.4 °F78 %29.87 in10.0 miWNW (300°)17.3 mph23.0 mphOvercast
7:35 AM5.0 °F-0.4 °F78 %29.87 in10.0 miWNW (290°)17.3 mphOvercast
7:55 AM5.0 °F-0.4 °F78 %29.88 in10.0 miWNW (290°)16.1 mphOvercast
8:15 AM5.0 °F-0.4 °F78 %29.89 in10.0 miNW (310°)18.4 mph23.0 mphMostly Cloudy
8:35 AM5.0 °F-0.4 °F78 %29.90 in5.0 miWNW (300°)18.4 mph21.9 mphHaze
8:55 AM5.0 °F-2.2 °F72 %29.91 in7.0 miWNW (300°)20.7 mphMostly Cloudy
9:15 AM3.2 °F-4.0 °F72 %29.92 in5.0 miWNW (300°)23.0 mph28.8 mphHaze
9:35 AM3.2 °F-4.0 °F72 %29.93 in5.0 miNW (310°)20.7 mph26.5 mphHaze
9:55 AM5.0 °F-4.0 °F66 %29.94 in7.0 miWNW (300°)23.0 mph27.6 mphOvercast
10:15 AM3.2 °F-4.0 °F72 %29.96 in4.0 miWNW (300°)23.0 mphHaze
10:35 AM5.0 °F-4.0 °F66 %29.97 in2.5 miNW (310°)21.9 mph31.1 mphHaze
10:55 AM5.0 °F-4.0 °F66 %29.97 in3.0 miWNW (300°)24.2 mph29.9 mphHaze
11:15 AM5.0 °F-2.2 °F72 %29.98 in5.0 miWNW (300°)23.0 mphHaze
11:35 AM5.0 °F-4.0 °F66 %29.99 in4.0 miNW (310°)18.4 mph27.6 mphHaze
11:55 AM5.0 °F-4.0 °F66 %30.00 in4.0 miNW (310°)17.3 mph27.6 mphHaze
12:15 PM5.0 °F-2.2 °F72 %30.00 in3.0 miWNW (300°)21.9 mphHaze
12:35 PM6.8 °F-0.4 °F72 %30.01 in3.0 miWNW (290°)20.7 mphHaze
12:55 PM6.8 °F-0.4 °F72 %30.01 in5.0 miWNW (300°)23.0 mph27.6 mphHaze
1:15 PM5.0 °F-4.0 °F66 %30.01 in4.0 miWNW (300°)26.5 mph31.1 mphHaze
1:35 PM5.0 °F-2.2 °F72 %30.02 in4.0 miWNW (300°)23.0 mphHaze
1:55 PM5.0 °F-0.4 °F78 %30.02 in2.0 miWNW (300°)23.0 mph33.4 mphHaze
2:15 PM5.0 °F-2.2 °F72 %30.03 in2.5 miWNW (300°)23.0 mph31.1 mphHaze
2:35 PM5.0 °F-2.2 °F72 %30.04 in2.0 miNW (310°)24.2 mph32.2 mphHaze
2:55 PM5.0 °F-2.2 °F72 %30.04 in2.0 miWNW (300°)26.5 mph33.4 mphHaze
3:15 PM5.0 °F-4.0 °F66 %30.05 in2.0 miWNW (300°)25.3 mph32.2 mphHaze
3:35 PM3.2 °F-4.0 °F72 %30.07 in2.5 miWNW (300°)27.6 mph32.2 mphHaze
3:55 PM3.2 °F-4.0 °F72 %30.07 in4.0 miWNW (290°)24.2 mph28.8 mphHaze
4:15 PM3.2 °F-4.0 °F72 %30.08 in4.0 miWNW (300°)24.2 mph33.4 mphHaze
4:35 PM3.2 °F-4.0 °F72 %30.10 in3.0 miWNW (300°)20.7 mphHaze
4:55 PM3.2 °F-4.0 °F72 %30.10 in3.0 miWNW (300°)20.7 mph27.6 mphHaze
5:15 PM1.4 °F-4.0 °F78 %30.11 in3.0 miWNW (300°)21.9 mph28.8 mphHaze
5:35 PM1.4 °F-4.0 °F78 %30.13 in4.0 miWNW (300°)19.6 mphHaze
5:55 PM1.4 °F-4.0 °F78 %30.14 in4.0 miWNW (300°)16.1 mph26.5 mphHaze
6:15 PM1.4 °F-5.8 °F72 %30.15 in7.0 miNW (310°)16.1 mph25.3 mphOvercast
6:35 PM1.4 °F-7.6 °F66 %30.16 in10.0 miNW (310°)17.3 mph23.0 mphMostly Cloudy
6:55 PM-0.4 °F-7.6 °F72 %30.17 in10.0 miNW (310°)13.8 mph21.9 mphScattered Clouds
7:15 PM-0.4 °F-7.6 °F72 %30.17 in10.0 miNW (310°)18.4 mph24.2 mphScattered Clouds
7:35 PM-0.4 °F-7.6 °F72 %30.18 in10.0 miNW (310°)15.0 mph23.0 mphScattered Clouds
7:55 PM-0.4 °F-7.6 °F72 %30.19 in10.0 miNW (310°)15.0 mph20.7 mphMostly Cloudy
8:15 PM-0.4 °F-7.6 °F72 %30.19 in10.0 miNW (310°)15.0 mph25.3 mphOvercast
8:35 PM-0.4 °F-7.6 °F72 %30.20 in10.0 miNW (310°)15.0 mph19.6 mphOvercast
8:55 PM-0.4 °F-7.6 °F72 %30.21 in10.0 miNW (310°)13.8 mphMostly Cloudy
9:15 PM-0.4 °F-7.6 °F72 %30.22 in10.0 miNW (310°)17.3 mph23.0 mphOvercast
9:35 PM-0.4 °F-9.4 °F66 %30.23 in10.0 miNW (310°)19.6 mph26.5 mphMostly Cloudy
9:55 PM-2.2 °F-9.4 °F71 %30.23 in10.0 miNW (310°)10.4 mph24.2 mphScattered Clouds
10:15 PM-2.2 °F-9.4 °F71 %30.24 in10.0 miNW (310°)13.8 mph19.6 mphMostly Cloudy
10:35 PM-2.2 °F-9.4 °F71 %30.24 in10.0 miNW (310°)11.5 mphOvercast
11:15 PM-2.2 °F-9.4 °F71 %30.26 in10.0 miWNW (300°)15.0 mphOvercast
11:35 PM-2.2 °F-9.4 °F71 %30.26 in10.0 miWNW (300°)17.3 mph23.0 mphOvercast
Hourly data recorded from KIIB, located miles away from Independence, Iowa







STORIES FROM OUR PARTNERS